Voltar ao catálogo

TJS-15 AKM

AtivoGEO
NORAD 63299·ROCKET BODY·🇨🇳 China

Lançado Mar 9, 2025 de Xichang Satellite Launch Center

Loading…

TLE

AtualizadoSource: Space-Track

Época: Sep 13, 2026, 15:38 UTC

1 63299U 25045C   26256.65207774  .00000014  00000-0  00000+0 0  9998
2 63299   1.4495  83.5308 0018854  77.6786 283.5350  0.98873433  5486

Acompanhe TJS-15 AKM em tempo real com AllMySat

Download on the App Store